TimeCDT,TemperatureF,Dew PointF,Humidity,Sea Level PressureIn,VisibilityMPH,Wind Direction,Wind SpeedMPH,Gust SpeedMPH,PrecipitationIn,Events,Conditions,WindDirDegrees,DateUTC
12:51 AM,81.0,72.0,74,29.98,10.0,SE,5.8,-,N/A,,Partly Cloudy,140,2012-08-27 05:51:00
1:51 AM,79.0,70.0,74,29.98,10.0,SSE,3.5,-,N/A,,Partly Cloudy,160,2012-08-27 06:51:00
2:51 AM,77.0,68.0,74,29.97,10.0,Calm,Calm,-,N/A,,Mostly Cloudy,0,2012-08-27 07:51:00
3:03 AM,78.8,69.8,74,29.97,10.0,Calm,Calm,-,N/A,,Scattered Clouds,0,2012-08-27 08:03:00
3:51 AM,77.0,71.1,82,29.96,10.0,Calm,Calm,-,N/A,,Partly Cloudy,0,2012-08-27 08:51:00
4:51 AM,77.0,70.0,79,29.96,10.0,Calm,Calm,-,N/A,,Partly Cloudy,0,2012-08-27 09:51:00
5:51 AM,73.9,66.9,79,29.96,10.0,West,3.5,-,N/A,,Partly Cloudy,260,2012-08-27 10:51:00
6:51 AM,73.9,69.1,85,29.98,10.0,Calm,Calm,-,N/A,,Partly Cloudy,0,2012-08-27 11:51:00
7:51 AM,77.0,71.1,82,30.00,10.0,NNW,4.6,-,N/A,,Partly Cloudy,340,2012-08-27 12:51:00
8:51 AM,84.0,73.9,72,30.01,10.0,North,6.9,-,N/A,,Partly Cloudy,10,2012-08-27 13:51:00
9:51 AM,87.1,73.9,65,30.02,10.0,North,4.6,-,N/A,,Partly Cloudy,350,2012-08-27 14:51:00
10:51 AM,91.0,73.0,55,30.02,10.0,East,3.5,-,N/A,,Scattered Clouds,90,2012-08-27 15:51:00
11:51 AM,93.0,70.0,47,30.01,10.0,Variable,3.5,-,N/A,,Scattered Clouds,0,2012-08-27 16:51:00
12:51 PM,93.9,69.1,44,29.99,10.0,Variable,4.6,-,N/A,,Scattered Clouds,0,2012-08-27 17:51:00
1:51 PM,96.1,69.1,41,29.96,10.0,NE,5.8,-,N/A,,Scattered Clouds,50,2012-08-27 18:51:00
2:51 PM,98.1,70.0,40,29.95,10.0,ENE,12.7,21.9,N/A,,Scattered Clouds,60,2012-08-27 19:51:00
3:51 PM,97.0,70.0,41,29.91,10.0,East,11.5,-,N/A,,Scattered Clouds,90,2012-08-27 20:51:00
4:51 PM,96.1,71.1,44,29.90,10.0,East,15.0,-,N/A,,Partly Cloudy,100,2012-08-27 21:51:00
5:51 PM,95.0,70.0,44,29.89,10.0,ESE,15.0,-,N/A,,Partly Cloudy,110,2012-08-27 22:51:00
6:51 PM,93.0,69.1,45,29.89,10.0,East,13.8,-,N/A,,Partly Cloudy,100,2012-08-27 23:51:00
7:51 PM,90.0,70.0,52,29.89,10.0,ESE,10.4,-,N/A,,Partly Cloudy,120,2012-08-28 00:51:00
8:51 PM,87.1,72.0,61,29.90,10.0,SE,9.2,-,N/A,,Clear,140,2012-08-28 01:51:00
9:51 PM,86.0,73.0,65,29.91,10.0,South,8.1,-,N/A,,Clear,180,2012-08-28 02:51:00
10:51 PM,84.9,72.0,65,29.92,10.0,South,5.8,-,N/A,,Clear,180,2012-08-28 03:51:00
11:51 PM,82.9,73.0,72,29.92,10.0,SSW,5.8,-,N/A,,Clear,210,2012-08-28 04:51:00